Time,TemperatureF,DewpointF,PressureIn,WindDirection,WindDirectionDegrees,WindSpeedMPH,WindSpeedGustMPH,Humidity,HourlyPrecipIn,Conditions,Clouds,dailyrainin,SoftwareType,DateUTC
2013-01-03 00:01:00,21.2,-11.7,29.77,WNW,300,0.0,0.0,22,0.00,,---,0.00,VWS V13.01,2013-01-03 05:01:00,
2013-01-03 00:03:00,21.2,-11.7,29.77,WNW,300,0.0,0.0,22,0.00,,---,0.00,VWS V13.01,2013-01-03 05:03:00,
2013-01-03 00:04:00,21.0,-11.9,29.77,WNW,300,0.0,0.0,22,0.00,,---,0.00,VWS V13.01,2013-01-03 05:04:00,
2013-01-03 00:09:00,21.0,-11.9,29.77,WNW,300,0.0,0.0,22,0.00,,---,0.00,VWS V13.01,2013-01-03 05:09:00,
2013-01-03 00:14:00,21.2,-11.7,29.77,WNW,300,0.0,0.0,22,0.00,,---,0.00,VWS V13.01,2013-01-03 05:14:00,
2013-01-03 00:19:00,21.2,-11.7,29.77,WNW,300,2.7,2.7,22,0.00,,---,0.00,VWS V13.01,2013-01-03 05:19:00,
2013-01-03 00:25:00,21.2,-11.7,29.77,WNW,297,0.0,3.1,22,0.00,,---,0.00,VWS V13.01,2013-01-03 05:25:00,
2013-01-03 00:30:00,21.0,-11.9,29.77,WNW,298,0.0,3.1,22,0.00,,---,0.00,VWS V13.01,2013-01-03 05:30:00,
2013-01-03 00:35:00,21.0,-11.9,29.77,NW,313,3.6,4.7,22,0.00,,---,0.00,VWS V13.01,2013-01-03 05:35:00,
2013-01-03 00:40:00,21.2,-11.7,29.77,NNW,328,0.0,0.0,22,0.00,,---,0.00,VWS V13.01,2013-01-03 05:40:00,
2013-01-03 00:45:00,21.0,-11.9,29.77,NW,308,3.1,5.1,22,0.00,,---,0.00,VWS V13.01,2013-01-03 05:45:00,
2013-01-03 00:50:00,21.0,-11.9,29.77,NW,311,0.0,5.6,22,0.00,,---,0.00,VWS V13.01,2013-01-03 05:50:00,
2013-01-03 00:55:00,21.0,-11.9,29.77,NW,311,4.0,5.6,22,0.00,,---,0.00,VWS V13.01,2013-01-03 05:55:00,
2013-01-03 01:01:00,20.8,-12.0,29.77,NW,311,0.0,0.0,22,0.00,,---,0.00,VWS V13.01,2013-01-03 06:01:00,
2013-01-03 01:06:00,20.8,-12.0,29.77,NW,311,3.1,3.1,22,0.00,,---,0.00,VWS V13.01,2013-01-03 06:06:00,
2013-01-03 01:11:00,20.7,-12.2,29.77,NW,311,0.0,3.6,22,0.00,,---,0.00,VWS V13.01,2013-01-03 06:11:00,
2013-01-03 01:16:00,20.5,-12.3,29.77,NW,313,2.7,3.6,22,0.00,,---,0.00,VWS V13.01,2013-01-03 06:16:00,
2013-01-03 01:21:00,20.3,-12.5,29.77,NW,313,0.0,0.0,22,0.00,,---,0.00,VWS V13.01,2013-01-03 06:21:00,
2013-01-03 01:26:00,20.3,-12.5,29.77,NNW,339,3.6,4.0,22,0.00,,---,0.00,VWS V13.01,2013-01-03 06:26:00,
2013-01-03 01:31:00,20.3,-12.5,29.77,NW,316,0.0,4.0,22,0.00,,---,0.00,VWS V13.01,2013-01-03 06:31:00,
2013-01-03 01:36:00,20.3,-12.5,29.77,NNW,340,3.6,5.6,22,0.00,,---,0.00,VWS V13.01,2013-01-03 06:36:00,
2013-01-03 01:41:00,20.3,-12.5,29.77,NNW,340,0.0,6.5,22,0.00,,---,0.00,VWS V13.01,2013-01-03 06:41:00,
2013-01-03 01:47:00,20.1,-12.6,29.77,NNW,340,0.0,6.5,22,0.00,,---,0.00,VWS V13.01,2013-01-03 06:47:00,
2013-01-03 01:52:00,20.1,-12.6,29.77,NNW,340,3.1,6.5,22,0.00,,---,0.00,VWS V13.01,2013-01-03 06:52:00,
2013-01-03 01:57:00,19.9,-12.8,29.77,NNW,340,0.0,6.5,22,0.00,,---,0.00,VWS V13.01,2013-01-03 06:57:00,
2013-01-03 02:02:00,19.9,-12.8,29.77,NNW,340,2.7,4.0,22,0.00,,---,0.00,VWS V13.01,2013-01-03 07:02:00,
2013-01-03 02:07:00,19.8,-12.9,29.80,NNW,340,0.0,4.0,22,0.00,,---,0.00,VWS V13.01,2013-01-03 07:07:00,
2013-01-03 02:12:00,19.8,-12.9,29.80,NNW,340,0.0,4.0,22,0.00,,---,0.00,VWS V13.01,2013-01-03 07:12:00,
2013-01-03 02:18:00,19.8,-14.8,29.80,North,349,3.1,5.6,20,0.00,,---,0.00,VWS V13.01,2013-01-03 07:18:00,
2013-01-03 02:23:00,19.6,-15.0,29.80,NW,308,3.1,4.0,20,0.00,,---,0.00,VWS V13.01,2013-01-03 07:23:00,
2013-01-03 02:28:00,19.6,-15.0,29.80,NNW,345,2.7,4.5,20,0.00,,---,0.00,VWS V13.01,2013-01-03 07:28:00,
2013-01-03 02:33:00,19.4,-15.1,29.80,NNW,330,0.0,7.4,20,0.00,,---,0.00,VWS V13.01,2013-01-03 07:33:00,
2013-01-03 02:38:00,19.2,-15.3,29.77,North,353,5.6,8.9,20,0.00,,---,0.00,VWS V13.01,2013-01-03 07:38:00,
2013-01-03 02:44:00,19.0,-15.4,29.77,NNW,343,0.0,5.1,20,0.00,,---,0.00,VWS V13.01,2013-01-03 07:44:00,
2013-01-03 02:49:00,18.7,-15.7,29.77,NW,316,3.1,6.5,20,0.00,,---,0.00,VWS V13.01,2013-01-03 07:49:00,
2013-01-03 02:54:00,18.5,-15.9,29.77,NW,321,0.0,6.5,20,0.00,,---,0.00,VWS V13.01,2013-01-03 07:54:00,
2013-01-03 02:59:00,18.3,-16.0,29.77,NW,325,0.0,6.5,20,0.00,,---,0.00,VWS V13.01,2013-01-03 07:59:00,
2013-01-03 03:04:00,18.0,-16.3,29.77,NW,318,3.6,4.7,20,0.00,,---,0.00,VWS V13.01,2013-01-03 08:04:00,
2013-01-03 03:09:00,17.6,-15.7,29.80,NW,323,4.0,4.7,21,0.00,,---,0.00,VWS V13.01,2013-01-03 08:09:00,
2013-01-03 03:15:00,17.4,-15.8,29.80,NNW,334,3.1,7.4,21,0.00,,---,0.00,VWS V13.01,2013-01-03 08:15:00,
2013-01-03 03:20:00,17.4,-15.8,29.80,NW,307,3.1,3.6,21,0.00,,---,0.00,VWS V13.01,2013-01-03 08:20:00,
2013-01-03 03:25:00,17.1,-16.1,29.77,NNW,332,3.1,6.5,21,0.00,,---,0.00,VWS V13.01,2013-01-03 08:25:00,
2013-01-03 03:30:00,16.9,-16.3,29.77,NW,311,0.0,6.5,21,0.00,,---,0.00,VWS V13.01,2013-01-03 08:30:00,
2013-01-03 03:35:00,16.7,-16.4,29.77,NNW,328,0.0,6.5,21,0.00,,---,0.00,VWS V13.01,2013-01-03 08:35:00,
2013-01-03 03:40:00,16.7,-16.4,29.77,North,353,5.1,5.1,21,0.00,,---,0.00,VWS V13.01,2013-01-03 08:40:00,
2013-01-03 03:45:00,16.5,-16.6,29.77,NNW,333,3.1,7.8,21,0.00,,---,0.00,VWS V13.01,2013-01-03 08:45:00,
2013-01-03 03:50:00,16.5,-16.6,29.77,North,357,0.0,7.8,21,0.00,,---,0.00,VWS V13.01,2013-01-03 08:50:00,
2013-01-03 03:55:00,16.2,-16.9,29.77,NNW,348,3.6,7.8,21,0.00,,---,0.00,VWS V13.01,2013-01-03 08:55:00,
2013-01-03 04:00:00,16.0,-17.0,29.77,NW,310,0.0,0.0,21,0.00,,---,0.00,VWS V13.01,2013-01-03 09:00:00,
2013-01-03 04:06:00,16.0,-17.0,29.77,NW,308,2.7,8.3,21,0.00,,---,0.00,VWS V13.01,2013-01-03 09:06:00,
2013-01-03 04:11:00,15.8,-17.2,29.77,NNW,333,4.0,8.3,21,0.00,,---,0.00,VWS V13.01,2013-01-03 09:11:00,
2013-01-03 04:16:00,15.6,-17.4,29.77,WNW,298,4.5,8.3,21,0.00,,---,0.00,VWS V13.01,2013-01-03 09:16:00,
2013-01-03 04:21:00,15.4,-17.5,29.77,NW,322,4.0,6.0,21,0.00,,---,0.00,VWS V13.01,2013-01-03 09:21:00,
2013-01-03 04:26:00,15.3,-17.7,29.77,NW,320,3.6,6.5,21,0.00,,---,0.00,VWS V13.01,2013-01-03 09:26:00,
2013-01-03 04:31:00,15.1,-17.8,29.77,NW,315,4.0,8.9,21,0.00,,---,0.00,VWS V13.01,2013-01-03 09:31:00,
2013-01-03 04:36:00,14.9,-18.0,29.77,WNW,301,5.1,8.9,21,0.00,,---,0.00,VWS V13.01,2013-01-03 09:36:00,
2013-01-03 04:41:00,14.9,-18.0,29.77,WNW,299,0.0,5.6,21,0.00,,---,0.00,VWS V13.01,2013-01-03 09:41:00,
2013-01-03 04:47:00,14.5,-18.3,29.77,NNW,345,3.1,7.8,21,0.00,,---,0.00,VWS V13.01,2013-01-03 09:47:00,
2013-01-03 04:52:00,14.4,-18.4,29.77,NW,318,3.1,8.9,21,0.00,,---,0.00,VWS V13.01,2013-01-03 09:52:00,
2013-01-03 04:57:00,14.2,-18.6,29.77,West,281,6.5,8.9,21,0.00,,---,0.00,VWS V13.01,2013-01-03 09:57:00,
2013-01-03 05:02:00,14.0,-17.8,29.77,NW,314,4.0,6.9,22,0.00,,---,0.00,VWS V13.01,2013-01-03 10:02:00,
2013-01-03 05:08:00,13.8,-18.0,29.77,NW,322,2.7,7.8,22,0.00,,---,0.00,VWS V13.01,2013-01-03 10:08:00,
2013-01-03 05:13:00,13.8,-18.0,29.77,NW,319,4.0,7.8,22,0.00,,---,0.00,VWS V13.01,2013-01-03 10:13:00,
2013-01-03 05:18:00,13.6,-18.1,29.77,North,357,5.1,7.8,22,0.00,,---,0.00,VWS V13.01,2013-01-03 10:18:00,
2013-01-03 05:23:00,13.6,-18.1,29.77,WNW,301,3.6,6.0,22,0.00,,---,0.00,VWS V13.01,2013-01-03 10:23:00,
2013-01-03 05:28:00,13.5,-18.3,29.77,NW,321,3.1,6.0,22,0.00,,---,0.00,VWS V13.01,2013-01-03 10:28:00,
2013-01-03 05:33:00,13.5,-18.3,29.77,NW,306,2.7,6.0,22,0.00,,---,0.00,VWS V13.01,2013-01-03 10:33:00,
2013-01-03 05:38:00,13.3,-18.4,29.77,NW,317,0.0,7.8,22,0.00,,---,0.00,VWS V13.01,2013-01-03 10:38:00,
2013-01-03 05:43:00,13.1,-18.6,29.77,NW,308,0.0,3.6,22,0.00,,---,0.00,VWS V13.01,2013-01-03 10:43:00,
2013-01-03 05:48:00,12.9,-18.8,29.77,NW,304,3.1,7.4,22,0.00,,---,0.00,VWS V13.01,2013-01-03 10:48:00,
2013-01-03 05:53:00,12.9,-18.8,29.77,North,353,5.1,7.4,22,0.00,,---,0.00,VWS V13.01,2013-01-03 10:53:00,
2013-01-03 05:59:00,12.9,-18.8,29.77,WNW,303,4.0,7.4,22,0.00,,---,0.00,VWS V13.01,2013-01-03 10:59:00,
2013-01-03 06:04:00,12.7,-18.9,29.77,NW,312,0.0,5.6,22,0.00,,---,0.00,VWS V13.01,2013-01-03 11:04:00,
2013-01-03 06:09:00,12.6,-19.1,29.77,NW,318,6.5,6.5,22,0.00,,---,0.00,VWS V13.01,2013-01-03 11:09:00,
2013-01-03 06:14:00,12.4,-19.2,29.77,WNW,299,7.4,7.4,22,0.00,,---,0.00,VWS V13.01,2013-01-03 11:14:00,
2013-01-03 06:19:00,12.2,-19.4,29.77,NW,313,3.6,8.9,22,0.00,,---,0.00,VWS V13.01,2013-01-03 11:19:00,
2013-01-03 06:24:00,12.2,-19.4,29.77,NW,319,0.0,6.0,22,0.00,,---,0.00,VWS V13.01,2013-01-03 11:24:00,
2013-01-03 06:29:00,12.0,-19.5,29.77,WNW,284,4.0,11.2,22,0.00,,---,0.00,VWS V13.01,2013-01-03 11:29:00,
2013-01-03 06:34:00,11.8,-19.7,29.77,West,279,2.7,11.2,22,0.00,,---,0.00,VWS V13.01,2013-01-03 11:34:00,
2013-01-03 06:39:00,11.7,-19.8,29.80,NW,324,5.1,11.2,22,0.00,,---,0.00,VWS V13.01,2013-01-03 11:39:00,
2013-01-03 06:44:00,11.5,-20.0,29.80,NW,312,3.1,9.8,22,0.00,,---,0.00,VWS V13.01,2013-01-03 11:44:00,
2013-01-03 06:49:00,11.3,-20.1,29.80,WNW,299,3.6,9.8,22,0.00,,---,0.00,VWS V13.01,2013-01-03 11:49:00,
2013-01-03 06:54:00,11.1,-20.3,29.80,WNW,284,0.0,9.8,22,0.00,,---,0.00,VWS V13.01,2013-01-03 11:54:00,
2013-01-03 06:59:00,10.9,-20.4,29.80,West,276,5.1,9.8,22,0.00,,---,0.00,VWS V13.01,2013-01-03 11:59:00,
2013-01-03 07:05:00,10.8,-20.6,29.80,NW,304,4.0,5.6,22,0.00,,---,0.00,VWS V13.01,2013-01-03 12:05:00,
2013-01-03 07:10:00,10.8,-20.6,29.80,WNW,289,3.1,6.9,22,0.00,,---,0.00,VWS V13.01,2013-01-03 12:10:00,
2013-01-03 07:15:00,10.4,-20.9,29.80,NNW,340,0.0,6.9,22,0.00,,---,0.00,VWS V13.01,2013-01-03 12:15:00,
2013-01-03 07:20:00,10.2,-21.1,29.80,WNW,298,0.0,4.5,22,0.00,,---,0.00,VWS V13.01,2013-01-03 12:20:00,
2013-01-03 07:25:00,10.2,-21.1,29.80,NW,306,5.1,6.5,22,0.00,,---,0.00,VWS V13.01,2013-01-03 12:25:00,
2013-01-03 07:30:00,10.0,-21.2,29.80,NW,320,2.7,6.9,22,0.00,,---,0.00,VWS V13.01,2013-01-03 12:30:00,
2013-01-03 07:35:00,9.9,-21.4,29.80,West,276,4.0,6.9,22,0.00,,---,0.00,VWS V13.01,2013-01-03 12:35:00,
2013-01-03 07:41:00,9.9,-21.4,29.80,West,277,0.0,0.0,22,0.00,,---,0.00,VWS V13.01,2013-01-03 12:41:00,
2013-01-03 07:46:00,9.7,-21.5,29.80,WNW,293,4.0,5.1,22,0.00,,---,0.00,VWS V13.01,2013-01-03 12:46:00,
2013-01-03 07:51:00,9.7,-21.5,29.80,WNW,293,0.0,5.1,22,0.00,,---,0.00,VWS V13.01,2013-01-03 12:51:00,
2013-01-03 07:56:00,9.5,-21.7,29.80,NNW,343,3.6,7.8,22,0.00,,---,0.00,VWS V13.01,2013-01-03 12:56:00,
2013-01-03 08:01:00,9.5,-21.7,29.80,NW,314,0.0,4.5,22,0.00,,---,0.00,VWS V13.01,2013-01-03 13:01:00,
2013-01-03 08:06:00,9.5,-21.7,29.80,WNW,297,0.0,5.1,22,0.00,,---,0.00,VWS V13.01,2013-01-03 13:06:00,
2013-01-03 08:11:00,9.5,-21.7,29.80,WNW,286,0.0,5.1,22,0.00,,---,0.00,VWS V13.01,2013-01-03 13:11:00,
2013-01-03 08:16:00,9.5,-21.7,29.80,West,259,3.6,5.1,22,0.00,,---,0.00,VWS V13.01,2013-01-03 13:16:00,
2013-01-03 08:21:00,9.7,-21.5,29.80,NW,310,0.0,4.0,22,0.00,,---,0.00,VWS V13.01,2013-01-03 13:21:00,
2013-01-03 08:27:00,9.9,-21.4,29.80,NW,326,4.5,5.1,22,0.00,,---,0.00,VWS V13.01,2013-01-03 13:27:00,
2013-01-03 08:32:00,10.4,-20.9,29.80,NW,326,0.0,5.6,22,0.00,,---,0.00,VWS V13.01,2013-01-03 13:32:00,
2013-01-03 08:37:00,10.4,-20.9,29.80,NW,305,2.7,5.6,22,0.00,,---,0.00,VWS V13.01,2013-01-03 13:37:00,
2013-01-03 08:42:00,10.2,-21.1,29.80,NNW,341,0.0,5.6,22,0.00,,---,0.00,VWS V13.01,2013-01-03 13:42:00,
2013-01-03 08:47:00,10.2,-21.1,29.80,North,349,3.6,5.6,22,0.00,,---,0.00,VWS V13.01,2013-01-03 13:47:00,
2013-01-03 08:52:00,10.4,-20.9,29.80,WNW,302,4.0,5.6,22,0.00,,---,0.00,VWS V13.01,2013-01-03 13:52:00,
2013-01-03 08:57:00,11.1,-20.3,29.80,WNW,283,4.5,5.6,22,0.00,,---,0.00,VWS V13.01,2013-01-03 13:57:00,
2013-01-03 09:02:00,11.8,-19.7,29.80,NNW,338,4.0,4.7,22,0.00,,---,0.00,VWS V13.01,2013-01-03 14:02:00,
2013-01-03 09:07:00,12.2,-19.4,29.80,West,281,4.7,5.1,22,0.00,,---,0.00,VWS V13.01,2013-01-03 14:07:00,
2013-01-03 09:13:00,13.3,-18.4,29.80,NW,313,6.0,6.0,22,0.00,,---,0.00,VWS V13.01,2013-01-03 14:13:00,
2013-01-03 09:18:00,14.9,-18.0,29.80,NW,308,4.0,7.8,21,0.00,,---,0.00,VWS V13.01,2013-01-03 14:18:00,
2013-01-03 09:23:00,16.2,-16.9,29.80,NNW,328,3.6,5.6,21,0.00,,---,0.00,VWS V13.01,2013-01-03 14:23:00,
2013-01-03 09:28:00,16.5,-16.6,29.80,NNW,336,3.6,5.6,21,0.00,,---,0.00,VWS V13.01,2013-01-03 14:28:00,
2013-01-03 09:33:00,15.8,-17.2,29.80,West,278,4.0,6.0,21,0.00,,---,0.00,VWS V13.01,2013-01-03 14:33:00,
2013-01-03 09:38:00,15.4,-17.5,29.80,WNW,282,4.5,7.4,21,0.00,,---,0.00,VWS V13.01,2013-01-03 14:38:00,
2013-01-03 09:43:00,16.9,-16.3,29.80,WNW,285,4.7,5.6,21,0.00,,---,0.00,VWS V13.01,2013-01-03 14:43:00,
2013-01-03 09:48:00,17.4,-15.8,29.80,NW,304,5.1,8.9,21,0.00,,---,0.00,VWS V13.01,2013-01-03 14:48:00,
2013-01-03 09:54:00,17.8,-16.5,29.80,WNW,298,0.0,8.9,20,0.00,,---,0.00,VWS V13.01,2013-01-03 14:54:00,
2013-01-03 09:59:00,19.9,-14.7,29.80,NW,315,3.1,8.9,20,0.00,,---,0.00,VWS V13.01,2013-01-03 14:59:00,
2013-01-03 10:04:00,21.0,-13.8,29.80,WNW,292,5.1,6.0,20,0.00,,---,0.00,VWS V13.01,2013-01-03 15:04:00,
2013-01-03 10:09:00,20.7,-14.1,29.80,WNW,292,3.1,6.0,20,0.00,,---,0.00,VWS V13.01,2013-01-03 15:09:00,
2013-01-03 10:14:00,20.3,-14.4,29.80,WNW,283,0.0,6.0,20,0.00,,---,0.00,VWS V13.01,2013-01-03 15:14:00,
2013-01-03 10:19:00,20.8,-13.9,29.80,WNW,283,2.7,6.0,20,0.00,,---,0.00,VWS V13.01,2013-01-03 15:19:00,
2013-01-03 10:25:00,22.1,-12.8,29.80,NW,319,0.0,5.6,20,0.00,,---,0.00,VWS V13.01,2013-01-03 15:25:00,
2013-01-03 10:30:00,22.8,-12.2,29.80,WNW,288,5.1,5.6,20,0.00,,---,0.00,VWS V13.01,2013-01-03 15:30:00,
2013-01-03 10:35:00,23.0,-12.1,29.80,WNW,289,5.1,5.6,20,0.00,,---,0.00,VWS V13.01,2013-01-03 15:35:00,
2013-01-03 10:40:00,24.3,-12.1,29.77,NW,321,3.6,4.0,19,0.00,,---,0.00,VWS V13.01,2013-01-03 15:40:00,
2013-01-03 10:45:00,24.6,-11.8,29.77,WNW,289,4.7,4.7,19,0.00,,---,0.00,VWS V13.01,2013-01-03 15:45:00,
2013-01-03 10:51:00,25.7,-10.9,29.77,WNW,297,5.6,5.6,19,0.00,,---,0.00,VWS V13.01,2013-01-03 15:51:00,
2013-01-03 10:56:00,28.2,-9.8,29.77,WNW,294,0.0,5.6,18,0.00,,---,0.00,VWS V13.01,2013-01-03 15:56:00,
2013-01-03 11:01:00,28.8,-9.4,29.77,NW,304,0.0,4.0,18,0.00,,---,0.00,VWS V13.01,2013-01-03 16:01:00,
2013-01-03 11:06:00,27.7,-10.3,29.77,WNW,292,4.7,5.1,18,0.00,,---,0.00,VWS V13.01,2013-01-03 16:06:00,
2013-01-03 11:11:00,29.1,-9.1,29.77,NW,310,4.5,5.1,18,0.00,,---,0.00,VWS V13.01,2013-01-03 16:11:00,
2013-01-03 11:16:00,31.1,-7.4,29.77,NW,308,4.7,5.6,18,0.00,,---,0.00,VWS V13.01,2013-01-03 16:16:00,
2013-01-03 11:21:00,30.2,-8.2,29.77,West,277,3.6,5.6,18,0.00,,---,0.00,VWS V13.01,2013-01-03 16:21:00,
2013-01-03 11:26:00,30.9,-7.6,29.77,North,349,3.1,6.9,18,0.00,,---,0.00,VWS V13.01,2013-01-03 16:26:00,
2013-01-03 11:31:00,31.1,-7.4,29.77,NW,319,3.6,6.9,18,0.00,,---,0.00,VWS V13.01,2013-01-03 16:31:00,
2013-01-03 11:37:00,29.8,-8.5,29.77,WNW,302,6.5,8.9,18,0.00,,---,0.00,VWS V13.01,2013-01-03 16:37:00,
2013-01-03 11:42:00,28.8,-9.4,29.77,NNE,13,0.0,6.5,18,0.00,,---,0.00,VWS V13.01,2013-01-03 16:42:00,
2013-01-03 11:47:00,30.7,-7.7,29.77,NNW,332,0.0,6.5,18,0.00,,---,0.00,VWS V13.01,2013-01-03 16:47:00,
2013-01-03 11:52:00,32.7,-6.1,29.77,North,1,0.0,6.9,18,0.00,,---,0.00,VWS V13.01,2013-01-03 16:52:00,
2013-01-03 11:57:00,30.4,-8.0,29.74,NW,305,4.5,6.9,18,0.00,,---,0.00,VWS V13.01,2013-01-03 16:57:00,
2013-01-03 12:02:00,31.3,-7.3,29.74,NNW,338,3.6,4.7,18,0.00,,---,0.00,VWS V13.01,2013-01-03 17:02:00,
2013-01-03 12:07:00,31.3,-7.3,29.74,NW,319,0.0,6.9,18,0.00,,---,0.00,VWS V13.01,2013-01-03 17:07:00,
2013-01-03 12:12:00,30.2,-8.2,29.74,NW,323,4.0,6.9,18,0.00,,---,0.00,VWS V13.01,2013-01-03 17:12:00,
2013-01-03 12:18:00,30.0,-8.3,29.74,NW,315,3.6,6.9,18,0.00,,---,0.00,VWS V13.01,2013-01-03 17:18:00,
2013-01-03 12:23:00,29.5,-8.8,29.74,WNW,282,4.0,7.8,18,0.00,,---,0.00,VWS V13.01,2013-01-03 17:23:00,
2013-01-03 12:28:00,31.3,-7.3,29.74,WNW,299,4.7,7.8,18,0.00,,---,0.00,VWS V13.01,2013-01-03 17:28:00,
2013-01-03 12:33:00,32.9,-5.9,29.74,NNW,337,4.5,7.8,18,0.00,,---,0.00,VWS V13.01,2013-01-03 17:33:00,
2013-01-03 12:38:00,34.2,-2.7,29.71,NW,315,0.0,7.8,20,0.00,,---,0.00,VWS V13.01,2013-01-03 17:38:00,
2013-01-03 12:43:00,32.9,-5.9,29.71,NNW,327,3.6,7.8,18,0.00,,---,0.00,VWS V13.01,2013-01-03 17:43:00,
2013-01-03 12:49:00,33.1,-5.8,29.71,WSW,258,4.7,7.8,18,0.00,,---,0.00,VWS V13.01,2013-01-03 17:49:00,
2013-01-03 12:54:00,31.8,-6.8,29.71,West,267,5.1,8.3,18,0.00,,---,0.00,VWS V13.01,2013-01-03 17:54:00,
2013-01-03 12:59:00,32.4,-6.4,29.71,WSW,245,4.0,8.3,18,0.00,,---,0.00,VWS V13.01,2013-01-03 17:59:00,
2013-01-03 13:04:00,32.0,-6.7,29.71,NNW,346,4.5,8.7,18,0.00,,---,0.00,VWS V13.01,2013-01-03 18:04:00,
2013-01-03 13:09:00,32.2,-6.6,29.71,North,353,5.6,8.7,18,0.00,,---,0.00,VWS V13.01,2013-01-03 18:09:00,
2013-01-03 13:14:00,33.6,-3.2,29.71,NW,307,3.1,8.7,20,0.00,,---,0.00,VWS V13.01,2013-01-03 18:14:00,
2013-01-03 13:19:00,34.2,-2.7,29.71,NNW,328,3.6,8.7,20,0.00,,---,0.00,VWS V13.01,2013-01-03 18:19:00,
2013-01-03 13:24:00,33.1,-5.8,29.71,NW,324,5.6,7.8,18,0.00,,---,0.00,VWS V13.01,2013-01-03 18:24:00,
2013-01-03 13:30:00,30.4,-8.0,29.71,WNW,295,4.5,7.8,18,0.00,,---,0.00,VWS V13.01,2013-01-03 18:30:00,
2013-01-03 13:35:00,28.6,-9.5,29.71,WSW,249,4.5,7.8,18,0.00,,---,0.00,VWS V13.01,2013-01-03 18:35:00,
2013-01-03 13:40:00,28.2,-9.8,29.71,West,278,4.7,4.7,18,0.00,,---,0.00,VWS V13.01,2013-01-03 18:40:00,
2013-01-03 13:45:00,28.0,-10.0,29.71,NW,319,8.7,8.7,18,0.00,,---,0.00,VWS V13.01,2013-01-03 18:45:00,
2013-01-03 13:50:00,27.9,-10.1,29.71,WNW,286,6.0,9.4,18,0.00,,---,0.00,VWS V13.01,2013-01-03 18:50:00,
2013-01-03 13:55:00,29.7,-8.6,29.71,North,353,6.5,9.4,18,0.00,,---,0.00,VWS V13.01,2013-01-03 18:55:00,
2013-01-03 14:00:00,30.0,-8.3,29.71,NW,308,4.5,5.1,18,0.00,,---,0.00,VWS V13.01,2013-01-03 19:00:00,
2013-01-03 14:06:00,29.7,-8.6,29.71,WNW,298,8.7,8.9,18,0.00,,---,0.00,VWS V13.01,2013-01-03 19:06:00,
2013-01-03 14:11:00,29.8,-8.5,29.71,NW,316,9.8,9.8,18,0.00,,---,0.00,VWS V13.01,2013-01-03 19:11:00,
2013-01-03 14:16:00,28.9,-9.2,29.71,WSW,251,3.6,9.8,18,0.00,,---,0.00,VWS V13.01,2013-01-03 19:16:00,
2013-01-03 14:55:00,27.5,-10.4,29.68,WSW,247,3.6,8.3,18,0.00,,---,0.00,VWS V13.01,2013-01-03 19:55:00,
2013-01-03 15:00:00,27.1,-10.7,29.68,NNW,330,3.1,4.0,18,0.00,,---,0.00,VWS V13.01,2013-01-03 20:00:00,
2013-01-03 15:05:00,27.0,-10.9,29.68,NW,311,4.5,6.0,18,0.00,,---,0.00,VWS V13.01,2013-01-03 20:05:00,
2013-01-03 15:10:00,27.0,-10.9,29.68,WNW,301,3.6,6.0,18,0.00,,---,0.00,VWS V13.01,2013-01-03 20:10:00,
2013-01-03 15:15:00,27.0,-10.9,29.68,WNW,293,0.0,6.0,18,0.00,,---,0.00,VWS V13.01,2013-01-03 20:15:00,
2013-01-03 15:20:00,27.0,-10.9,29.68,NNE,23,2.7,2.7,18,0.00,,---,0.00,VWS V13.01,2013-01-03 20:20:00,
2013-01-03 15:25:00,27.0,-10.9,29.68,NW,304,0.0,4.0,18,0.00,,---,0.00,VWS V13.01,2013-01-03 20:25:00,
2013-01-03 15:30:00,26.8,-11.0,29.68,West,267,4.0,4.7,18,0.00,,---,0.00,VWS V13.01,2013-01-03 20:30:00,
2013-01-03 15:36:00,26.8,-11.0,29.68,West,268,0.0,4.7,18,0.00,,---,0.00,VWS V13.01,2013-01-03 20:36:00,
2013-01-03 15:41:00,26.6,-10.1,29.68,WSW,245,4.5,4.5,19,0.00,,---,0.00,VWS V13.01,2013-01-03 20:41:00,
2013-01-03 15:46:00,26.4,-10.2,29.68,SW,216,3.1,5.6,19,0.00,,---,0.00,VWS V13.01,2013-01-03 20:46:00,
2013-01-03 15:51:00,26.2,-10.4,29.68,SW,216,0.0,5.6,19,0.00,,---,0.00,VWS V13.01,2013-01-03 20:51:00,
2013-01-03 15:56:00,26.1,-10.5,29.68,West,276,0.0,5.6,19,0.00,,---,0.00,VWS V13.01,2013-01-03 20:56:00,
2013-01-03 16:01:00,25.7,-10.9,29.68,West,276,0.0,0.0,19,0.00,,---,0.00,VWS V13.01,2013-01-03 21:01:00,
2013-01-03 16:06:00,25.3,-11.1,29.68,West,276,0.0,0.0,19,0.00,,---,0.00,VWS V13.01,2013-01-03 21:06:00,
2013-01-03 16:11:00,25.2,-11.3,29.68,West,280,0.0,4.5,19,0.00,,---,0.00,VWS V13.01,2013-01-03 21:11:00,
2013-01-03 16:16:00,25.0,-11.4,29.68,West,280,0.0,4.5,19,0.00,,---,0.00,VWS V13.01,2013-01-03 21:16:00,
2013-01-03 16:22:00,24.6,-11.8,29.68,West,280,0.0,0.0,19,0.00,,---,0.00,VWS V13.01,2013-01-03 21:22:00,
2013-01-03 16:27:00,24.3,-12.1,29.68,West,280,0.0,0.0,19,0.00,,---,0.00,VWS V13.01,2013-01-03 21:27:00,
2013-01-03 16:32:00,24.1,-12.2,29.68,West,280,0.0,0.0,19,0.00,,---,0.00,VWS V13.01,2013-01-03 21:32:00,
2013-01-03 16:37:00,23.9,-12.4,29.68,West,280,0.0,0.0,19,0.00,,---,0.00,VWS V13.01,2013-01-03 21:37:00,
2013-01-03 16:42:00,23.7,-12.5,29.68,West,280,0.0,0.0,19,0.00,,---,0.00,VWS V13.01,2013-01-03 21:42:00,
2013-01-03 16:47:00,23.4,-12.8,29.68,West,280,0.0,0.0,19,0.00,,---,0.00,VWS V13.01,2013-01-03 21:47:00,
2013-01-03 16:52:00,23.0,-12.1,29.68,West,280,0.0,0.0,20,0.00,,---,0.00,VWS V13.01,2013-01-03 21:52:00,
2013-01-03 16:58:00,22.8,-12.2,29.68,West,280,0.0,0.0,20,0.00,,---,0.00,VWS V13.01,2013-01-03 21:58:00,
2013-01-03 17:03:00,22.5,-12.5,29.68,West,280,0.0,0.0,20,0.00,,---,0.00,VWS V13.01,2013-01-03 22:03:00,
2013-01-03 17:08:00,22.1,-12.8,29.68,West,280,0.0,0.0,20,0.00,,---,0.00,VWS V13.01,2013-01-03 22:08:00,
2013-01-03 17:13:00,21.9,-13.0,29.68,West,280,0.0,0.0,20,0.00,,---,0.00,VWS V13.01,2013-01-03 22:13:00,
2013-01-03 17:18:00,21.9,-13.0,29.68,West,280,0.0,0.0,20,0.00,,---,0.00,VWS V13.01,2013-01-03 22:18:00,
2013-01-03 17:23:00,21.7,-13.1,29.68,West,280,0.0,0.0,20,0.00,,---,0.00,VWS V13.01,2013-01-03 22:23:00,
2013-01-03 17:28:00,21.7,-13.1,29.68,West,280,0.0,0.0,20,0.00,,---,0.00,VWS V13.01,2013-01-03 22:28:00,
2013-01-03 17:33:00,21.4,-13.4,29.68,West,280,0.0,0.0,20,0.00,,---,0.00,VWS V13.01,2013-01-03 22:33:00,
2013-01-03 17:38:00,21.2,-13.6,29.68,West,280,0.0,0.0,20,0.00,,---,0.00,VWS V13.01,2013-01-03 22:38:00,
2013-01-03 17:43:00,20.8,-13.9,29.68,West,280,0.0,0.0,20,0.00,,---,0.00,VWS V13.01,2013-01-03 22:43:00,
2013-01-03 17:49:00,20.8,-13.9,29.68,West,280,0.0,0.0,20,0.00,,---,0.00,VWS V13.01,2013-01-03 22:49:00,
2013-01-03 17:54:00,20.7,-14.1,29.68,West,280,0.0,0.0,20,0.00,,---,0.00,VWS V13.01,2013-01-03 22:54:00,
2013-01-03 17:59:00,20.5,-14.2,29.68,West,280,0.0,0.0,20,0.00,,---,0.00,VWS V13.01,2013-01-03 22:59:00,
2013-01-03 18:04:00,20.3,-14.4,29.68,West,280,0.0,0.0,20,0.00,,---,0.00,VWS V13.01,2013-01-03 23:04:00,
2013-01-03 18:09:00,20.3,-14.4,29.68,West,280,0.0,0.0,20,0.00,,---,0.00,VWS V13.01,2013-01-03 23:09:00,
2013-01-03 18:14:00,20.1,-14.5,29.68,West,280,0.0,0.0,20,0.00,,---,0.00,VWS V13.01,2013-01-03 23:14:00,
2013-01-03 18:19:00,19.9,-14.7,29.68,West,280,0.0,0.0,20,0.00,,---,0.00,VWS V13.01,2013-01-03 23:19:00,
2013-01-03 18:24:00,19.8,-14.8,29.68,West,280,0.0,0.0,20,0.00,,---,0.00,VWS V13.01,2013-01-03 23:24:00,
2013-01-03 18:29:00,19.6,-15.0,29.68,West,280,0.0,0.0,20,0.00,,---,0.00,VWS V13.01,2013-01-03 23:29:00,
2013-01-03 18:35:00,19.6,-15.0,29.68,West,280,0.0,0.0,20,0.00,,---,0.00,VWS V13.01,2013-01-03 23:35:00,
2013-01-03 18:40:00,19.6,-15.0,29.68,West,280,0.0,0.0,20,0.00,,---,0.00,VWS V13.01,2013-01-03 23:40:00,
2013-01-03 18:45:00,19.4,-15.1,29.68,West,280,0.0,0.0,20,0.00,,---,0.00,VWS V13.01,2013-01-03 23:45:00,
2013-01-03 18:50:00,19.4,-15.1,29.68,West,280,0.0,0.0,20,0.00,,---,0.00,VWS V13.01,2013-01-03 23:50:00,
2013-01-03 18:55:00,19.4,-15.1,29.71,West,280,0.0,0.0,20,0.00,,---,0.00,VWS V13.01,2013-01-03 23:55:00,
2013-01-03 19:00:00,19.6,-15.0,29.71,West,280,0.0,0.0,20,0.00,,---,0.00,VWS V13.01,2013-01-04 00:00:00,
2013-01-03 19:05:00,19.8,-14.8,29.71,West,280,0.0,0.0,20,0.00,,---,0.00,VWS V13.01,2013-01-04 00:05:00,
2013-01-03 19:10:00,19.8,-14.8,29.68,West,280,0.0,0.0,20,0.00,,---,0.00,VWS V13.01,2013-01-04 00:10:00,
2013-01-03 19:15:00,19.8,-14.8,29.68,West,280,0.0,0.0,20,0.00,,---,0.00,VWS V13.01,2013-01-04 00:15:00,
2013-01-03 19:21:00,19.9,-14.7,29.68,West,280,0.0,0.0,20,0.00,,---,0.00,VWS V13.01,2013-01-04 00:21:00,
2013-01-03 19:26:00,20.1,-14.5,29.68,West,280,0.0,0.0,20,0.00,,---,0.00,VWS V13.01,2013-01-04 00:26:00,
2013-01-03 19:31:00,20.3,-14.4,29.68,West,280,0.0,0.0,20,0.00,,---,0.00,VWS V13.01,2013-01-04 00:31:00,
2013-01-03 19:36:00,20.5,-14.2,29.68,West,280,0.0,0.0,20,0.00,,---,0.00,VWS V13.01,2013-01-04 00:36:00,
2013-01-03 19:41:00,20.7,-12.2,29.68,West,280,0.0,0.0,22,0.00,,---,0.00,VWS V13.01,2013-01-04 00:41:00,
2013-01-03 19:46:00,20.8,-12.0,29.68,West,280,0.0,0.0,22,0.00,,---,0.00,VWS V13.01,2013-01-04 00:46:00,
2013-01-03 19:51:00,21.0,-11.9,29.68,West,280,0.0,0.0,22,0.00,,---,0.00,VWS V13.01,2013-01-04 00:51:00,
2013-01-03 19:56:00,21.0,-11.9,29.68,West,280,0.0,3.1,22,0.00,,---,0.00,VWS V13.01,2013-01-04 00:56:00,
2013-01-03 20:02:00,21.2,-11.7,29.68,West,280,0.0,0.0,22,0.00,,---,0.00,VWS V13.01,2013-01-04 01:02:00,
2013-01-03 20:07:00,21.6,-11.4,29.68,West,280,0.0,0.0,22,0.00,,---,0.00,VWS V13.01,2013-01-04 01:07:00,
2013-01-03 20:12:00,21.7,-11.2,29.68,West,279,0.0,3.6,22,0.00,,---,0.00,VWS V13.01,2013-01-04 01:12:00,
2013-01-03 20:17:00,21.9,-11.1,29.68,West,279,0.0,3.6,22,0.00,,---,0.00,VWS V13.01,2013-01-04 01:17:00,
2013-01-03 20:22:00,22.3,-10.8,29.68,West,279,0.0,2.7,22,0.00,,---,0.00,VWS V13.01,2013-01-04 01:22:00,
2013-01-03 20:27:00,22.8,-10.3,29.68,WSW,250,0.0,8.3,22,0.00,,---,0.00,VWS V13.01,2013-01-04 01:27:00,
2013-01-03 20:32:00,23.5,-9.7,29.68,SW,230,3.6,8.3,22,0.00,,---,0.00,VWS V13.01,2013-01-04 01:32:00,
2013-01-03 20:38:00,23.5,-9.7,29.68,West,262,0.0,8.3,22,0.00,,---,0.00,VWS V13.01,2013-01-04 01:38:00,
2013-01-03 20:43:00,23.4,-9.9,29.68,West,262,0.0,4.0,22,0.00,,---,0.00,VWS V13.01,2013-01-04 01:43:00,
2013-01-03 20:48:00,23.2,-10.0,29.68,West,267,0.0,4.5,22,0.00,,---,0.00,VWS V13.01,2013-01-04 01:48:00,
2013-01-03 20:53:00,23.0,-10.2,29.68,SW,226,0.0,4.5,22,0.00,,---,0.00,VWS V13.01,2013-01-04 01:53:00,
2013-01-03 20:58:00,22.8,-10.3,29.68,SW,215,0.0,4.5,22,0.00,,---,0.00,VWS V13.01,2013-01-04 01:58:00,
2013-01-03 21:03:00,22.8,-10.3,29.68,SW,215,0.0,3.1,22,0.00,,---,0.00,VWS V13.01,2013-01-04 02:03:00,
2013-01-03 21:08:00,22.6,-10.5,29.68,WSW,248,0.0,6.0,22,0.00,,---,0.00,VWS V13.01,2013-01-04 02:08:00,
2013-01-03 21:13:00,22.1,-10.9,29.68,WSW,248,0.0,6.0,22,0.00,,---,0.00,VWS V13.01,2013-01-04 02:13:00,
2013-01-03 21:18:00,21.9,-11.1,29.68,WSW,248,0.0,6.0,22,0.00,,---,0.00,VWS V13.01,2013-01-04 02:18:00,
2013-01-03 21:24:00,21.7,-11.2,29.68,WSW,248,0.0,0.0,22,0.00,,---,0.00,VWS V13.01,2013-01-04 02:24:00,
2013-01-03 21:29:00,21.6,-11.4,29.68,WSW,248,0.0,0.0,22,0.00,,---,0.00,VWS V13.01,2013-01-04 02:29:00,
2013-01-03 21:34:00,21.2,-11.7,29.68,WSW,248,0.0,0.0,22,0.00,,---,0.00,VWS V13.01,2013-01-04 02:34:00,
2013-01-03 21:39:00,21.0,-11.9,29.68,WSW,248,0.0,0.0,22,0.00,,---,0.00,VWS V13.01,2013-01-04 02:39:00,
2013-01-03 21:44:00,21.0,-11.9,29.68,WSW,248,0.0,0.0,22,0.00,,---,0.00,VWS V13.01,2013-01-04 02:44:00,
2013-01-03 21:49:00,21.0,-11.9,29.68,WSW,248,0.0,0.0,22,0.00,,---,0.00,VWS V13.01,2013-01-04 02:49:00,
2013-01-03 21:54:00,21.0,-11.9,29.68,WSW,248,0.0,0.0,22,0.00,,---,0.00,VWS V13.01,2013-01-04 02:54:00,
2013-01-03 21:59:00,20.8,-12.0,29.68,WSW,248,0.0,0.0,22,0.00,,---,0.00,VWS V13.01,2013-01-04 02:59:00,
2013-01-03 22:05:00,20.5,-12.3,29.68,WSW,248,0.0,0.0,22,0.00,,---,0.00,VWS V13.01,2013-01-04 03:05:00,
2013-01-03 22:10:00,20.3,-12.5,29.68,WSW,248,0.0,0.0,22,0.00,,---,0.00,VWS V13.01,2013-01-04 03:10:00,
2013-01-03 22:15:00,20.1,-12.6,29.68,WSW,248,0.0,0.0,22,0.00,,---,0.00,VWS V13.01,2013-01-04 03:15:00,
2013-01-03 22:20:00,19.9,-12.8,29.68,WSW,248,0.0,0.0,22,0.00,,---,0.00,VWS V13.01,2013-01-04 03:20:00,
2013-01-03 22:25:00,19.9,-12.8,29.68,WSW,248,0.0,0.0,22,0.00,,---,0.00,VWS V13.01,2013-01-04 03:25:00,
2013-01-03 22:30:00,19.8,-12.9,29.68,WSW,248,0.0,0.0,22,0.00,,---,0.00,VWS V13.01,2013-01-04 03:30:00,
2013-01-03 22:35:00,19.6,-13.1,29.68,WSW,248,0.0,0.0,22,0.00,,---,0.00,VWS V13.01,2013-01-04 03:35:00,
2013-01-03 22:41:00,19.4,-12.3,29.68,WSW,248,0.0,0.0,23,0.00,,---,0.00,VWS V13.01,2013-01-04 03:41:00,
2013-01-03 22:46:00,19.4,-12.3,29.68,WSW,248,0.0,0.0,23,0.00,,---,0.00,VWS V13.01,2013-01-04 03:46:00,
2013-01-03 22:51:00,19.2,-12.5,29.68,WSW,248,0.0,0.0,23,0.00,,---,0.00,VWS V13.01,2013-01-04 03:51:00,
2013-01-03 22:56:00,19.2,-12.5,29.68,WSW,248,0.0,0.0,23,0.00,,---,0.00,VWS V13.01,2013-01-04 03:56:00,
2013-01-03 23:01:00,19.0,-12.6,29.68,WSW,248,0.0,0.0,23,0.00,,---,0.00,VWS V13.01,2013-01-04 04:01:00,
2013-01-03 23:06:00,19.0,-12.6,29.68,WSW,248,0.0,0.0,23,0.00,,---,0.00,VWS V13.01,2013-01-04 04:06:00,
2013-01-03 23:11:00,18.9,-12.8,29.68,WSW,248,0.0,0.0,23,0.00,,---,0.00,VWS V13.01,2013-01-04 04:11:00,
2013-01-03 23:16:00,18.5,-13.1,29.68,WSW,248,0.0,0.0,23,0.00,,---,0.00,VWS V13.01,2013-01-04 04:16:00,
2013-01-03 23:22:00,18.3,-13.3,29.68,WSW,248,0.0,0.0,23,0.00,,---,0.00,VWS V13.01,2013-01-04 04:22:00,
2013-01-03 23:27:00,18.3,-13.3,29.68,WSW,248,0.0,0.0,23,0.00,,---,0.00,VWS V13.01,2013-01-04 04:27:00,
2013-01-03 23:32:00,18.3,-13.3,29.68,WSW,248,0.0,0.0,23,0.00,,---,0.00,VWS V13.01,2013-01-04 04:32:00,
2013-01-03 23:37:00,18.3,-13.3,29.68,WSW,248,0.0,0.0,23,0.00,,---,0.00,VWS V13.01,2013-01-04 04:37:00,
2013-01-03 23:42:00,18.3,-13.3,29.68,WSW,248,0.0,0.0,23,0.00,,---,0.00,VWS V13.01,2013-01-04 04:42:00,
2013-01-03 23:47:00,18.5,-13.1,29.68,WSW,248,0.0,0.0,23,0.00,,---,0.00,VWS V13.01,2013-01-04 04:47:00,
2013-01-03 23:52:00,18.9,-12.8,29.68,WSW,248,0.0,0.0,23,0.00,,---,0.00,VWS V13.01,2013-01-04 04:52:00,
2013-01-03 23:57:00,19.0,-12.6,29.65,WSW,248,0.0,0.0,23,0.00,,---,0.00,VWS V13.01,2013-01-04 04:57:00,